Location: Central Falls
(41.8900°N, 71.3929°W)
Time: 16:06:44
(UTC+00:00)

Vanguard 1 - Pass Details

Date: 03 December 2023
Orbit: 653 x 3826 km, 34.3° (Epoch: 24 February)

Event Time Altitude Azimuth Distance (km) Brightness Sun altitude
Rises 20:32:57 0° 197° (SSW) 5,098 14.7 5.7°
Reaches altitude 10° 20:36:32 10° 185° (S) 4,525 14.2 5.2°
Maximum altitude 20:47:17 28° 133° (SE) 4,289 13.2 3.5°
Drops below altitude 10° 21:02:49 10° 84° (E) 6,661 13.7 1.1°
Sets 21:09:38 0° 76° (ENE) 7,910 14.0 0.0°
